Location: Icefog Observatory
(64.9000°N, 147.4000°W)
Time: 21:17:53
(UTC-08:00)

STARS - Visible Passes

Search period start: 18 September 2024 00:00
Search period end: 28 September 2024 00:00
Orbit: 599 x 615 km, 98.1° (Epoch: 18 September)

Date Brightness Start Highest point End Pass type
(mag) Time Alt. Az. Time Alt. Az. Time Alt. Az.
18 Sep ? 00:59:37 10° NE 01:02:17 16° E 01:02:19 16° E visible
18 Sep ? 02:34:44 10° NNE 02:38:58 64° ESE 02:39:13 62° SE visible
18 Sep ? 04:10:48 10° NNE 04:14:39 34° NW 04:16:06 27° W visible
18 Sep ? 05:47:15 10° N 05:49:31 14° NNW 05:51:48 10° WNW visible
19 Sep ? 01:12:39 10° NE 01:15:39 19° E 01:15:39 19° E visible
19 Sep ? 02:48:01 10° NNE 02:52:17 78° ESE 02:52:33 74° SSE visible
19 Sep ? 04:24:09 10° N 04:27:51 30° NW 04:29:26 23° W visible
19 Sep ? 06:00:41 10° N 06:02:38 13° NNW 06:04:34 10° NW visible
20 Sep ? 01:25:45 10° NE 01:28:58 23° E 01:28:58 23° E visible
20 Sep ? 03:01:18 10° NNE 03:05:34 87° WNW 03:05:52 77° SSW visible
20 Sep ? 04:37:29 10° N 04:41:01 26° NW 04:42:45 20° W visible
20 Sep ? 06:14:06 10° N 06:15:42 12° NNW 06:17:18 10° NW visible
21 Sep ? 01:38:53 10° NNE 01:42:16 27° E 01:42:16 27° E visible
21 Sep ? 03:14:34 10° NNE 03:18:49 73° WNW 03:19:09 68° WSW visible
21 Sep ? 04:50:48 10° N 04:54:09 23° NW 04:56:02 17° W visible
21 Sep ? 06:27:33 10° N 06:28:44 11° NNW 06:29:56 10° NW visible
22 Sep ? 01:52:02 10° NNE 01:55:32 33° E 01:55:32 33° E visible
22 Sep ? 03:27:49 10° NNE 03:32:01 61° WNW 03:32:25 57° W visible
22 Sep ? 05:04:06 10° N 05:07:14 20° NW 05:09:18 15° WNW visible
22 Sep ? 06:41:07 10° N 06:41:45 10° NNW 06:42:23 10° NNW visible
23 Sep ? 00:31:35 10° ENE 00:31:55 10° ENE 00:31:55 10° ENE visible
23 Sep ? 02:05:11 10° NNE 02:08:47 39° E 02:08:47 39° E visible
23 Sep ? 03:41:04 10° NNE 03:45:12 50° WNW 03:45:40 48° W visible
23 Sep ? 05:17:24 10° N 05:20:18 18° NW 05:22:33 13° WNW visible
24 Sep ? 00:43:44 10° NE 00:45:08 12° ENE 00:45:08 12° ENE visible
24 Sep ? 02:18:20 10° NNE 02:22:01 47° E 02:22:01 47° E visible
24 Sep ? 03:54:18 10° NNE 03:58:19 43° WNW 03:58:54 40° W visible
24 Sep ? 05:30:41 10° N 05:33:19 16° NW 05:35:47 11° WNW visible
25 Sep ? 00:56:28 10° NE 00:58:21 15° ENE 00:58:21 15° ENE visible
25 Sep ? 02:31:29 10° NNE 02:35:14 56° ENE 02:35:14 56° ENE visible
25 Sep ? 04:07:31 10° NNE 04:11:25 36° NW 04:12:07 34° WNW visible
25 Sep ? 05:43:57 10° N 05:46:19 15° NNW 05:48:41 10° WNW visible
26 Sep ? 01:09:20 10° NE 01:11:33 17° ENE 01:11:33 17° ENE visible
26 Sep ? 02:44:37 10° NNE 02:48:25 65° ENE 02:48:25 65° ENE visible
26 Sep ? 04:20:43 10° N 04:24:29 31° NW 04:25:18 29° WNW visible
26 Sep ? 05:57:13 10° N 05:59:17 13° NNW 06:01:21 10° WNW visible
27 Sep ? 01:22:16 10° NE 01:24:43 20° ENE 01:24:43 20° ENE visible
27 Sep ? 02:57:45 10° NNE 03:01:36 72° NNE 03:01:36 72° NNE visible
27 Sep ? 04:33:55 10° N 04:37:30 27° NW 04:38:28 25° WNW visible
27 Sep ? 06:10:28 10° N 06:12:13 12° NNW 06:13:57 10° NW visible
